AAL1987 KLGA-KDFW

Flight info

Callsign AAL1987
Flight time 3h 38m
Altitude 30000
Route PARKE J6 HVQ Q68 LITTR FEWWW SEEVR4
Aircraft A321/M-SDE3FGHIRWY/LB1

Departure

Time 2026-05-05 11:46
Airport LaGuardia Airport (KLGA)

Arrival

Time 2026-05-05 15:24
Airport Dallas Fort Worth International Airport (KDFW)
Time Latitude Longitude Altitude Speed Heading
2026-05-05 11:07 40.77480 -73.87278 13 ft 0 kts 38°
2026-05-05 11:08 40.77486 -73.87272 20 ft 0 kts 38°
2026-05-05 11:30 40.77476 -73.87282 22 ft 3 kts 38°
2026-05-05 11:30 40.77462 -73.87297 20 ft 3 kts 38°
2026-05-05 11:31 40.77444 -73.87315 20 ft 3 kts 46°
2026-05-05 11:31 40.77432 -73.87337 23 ft 3 kts 78°
2026-05-05 11:31 40.77431 -73.87343 22 ft 3 kts 90°
2026-05-05 11:31 40.77431 -73.87313 23 ft 3 kts 89°
2026-05-05 11:32 40.77431 -73.87283 22 ft 3 kts 93°
2026-05-05 11:32 40.77430 -73.87271 21 ft 0 kts 94°
2026-05-05 11:38 40.77430 -73.87270 19 ft 1 kts 94°
2026-05-05 11:38 40.77427 -73.87242 19 ft 5 kts 101°
2026-05-05 11:39 40.77415 -73.87177 21 ft 9 kts 95°
2026-05-05 11:39 40.77454 -73.87123 19 ft 9 kts 33°
2026-05-05 11:39 40.77507 -73.87078 19 ft 9 kts 32°
2026-05-05 11:39 40.77562 -73.87032 19 ft 10 kts 32°
2026-05-05 11:40 40.77631 -73.86989 14 ft 12 kts 352°
2026-05-05 11:40 40.77678 -73.87069 15 ft 10 kts 302°
2026-05-05 11:40 40.77717 -73.87150 15 ft 11 kts 302°
2026-05-05 11:40 40.77755 -73.87233 15 ft 11 kts 300°
2026-05-05 11:41 40.77805 -73.87266 13 ft 10 kts
2026-05-05 11:41 40.77857 -73.87308 14 ft 9 kts 303°
2026-05-05 11:41 40.77891 -73.87379 14 ft 9 kts 302°
2026-05-05 11:41 40.77923 -73.87445 16 ft 9 kts 302°
2026-05-05 11:42 40.77953 -73.87510 16 ft 8 kts 302°
2026-05-05 11:42 40.77983 -73.87573 16 ft 9 kts 302°
2026-05-05 11:42 40.78021 -73.87652 15 ft 11 kts 302°
2026-05-05 11:42 40.78062 -73.87738 17 ft 11 kts 302°
2026-05-05 11:43 40.78102 -73.87820 18 ft 10 kts 302°
2026-05-05 11:43 40.78160 -73.87865 18 ft 10 kts 342°
2026-05-05 11:43 40.78217 -73.87846 19 ft 8 kts 51°
2026-05-05 11:43 40.78208 -73.87809 18 ft 0 kts 121°
2026-05-05 11:45 40.78200 -73.87791 19 ft 18 kts 121°
2026-05-05 11:45 40.77979 -73.87330 15 ft 97 kts 122°
2026-05-05 11:45 40.77501 -73.86326 17 ft 159 kts 122°
2026-05-05 11:45 40.76856 -73.85027 571 ft 168 kts 131°
2026-05-05 11:46 40.75944 -73.84107 1294 ft 164 kts 167°
2026-05-05 11:46 40.74864 -73.83798 2054 ft 163 kts 182°
2026-05-05 11:46 40.73717 -73.83459 2450 ft 176 kts 176°
2026-05-05 11:46 40.72471 -73.83069 2695 ft 191 kts 180°
2026-05-05 11:47 40.71157 -73.83274 2847 ft 194 kts 211°
2026-05-05 11:47 40.70122 -73.84414 3107 ft 201 kts 234°
2026-05-05 11:47 40.69220 -73.85843 3576 ft 205 kts 231°
2026-05-05 11:47 40.68267 -73.87263 4093 ft 208 kts 231°
2026-05-05 11:48 40.67484 -73.90862 4791 ft 237 kts 287°
2026-05-05 11:48 40.68267 -73.92858 5181 ft 252 kts 296°
2026-05-05 11:48 40.69194 -73.94848 5778 ft 257 kts 297°
2026-05-05 11:49 40.70016 -73.96924 6407 ft 256 kts 284°
2026-05-05 11:49 40.70311 -73.99215 6998 ft 254 kts 268°
2026-05-05 11:49 40.70299 -74.01557 7608 ft 257 kts 266°
2026-05-05 11:49 40.70267 -74.03921 8217 ft 260 kts 266°
2026-05-05 11:50 40.70227 -74.06310 8834 ft 263 kts 265°
2026-05-05 11:50 40.70188 -74.08731 9449 ft 265 kts 265°
2026-05-05 11:50 40.70149 -74.11177 10031 ft 269 kts 265°
2026-05-05 11:50 40.70108 -74.13693 10306 ft 285 kts 265°
2026-05-05 11:51 40.70061 -74.16389 10436 ft 304 kts 266°
2026-05-05 11:51 40.70012 -74.19257 10562 ft 322 kts 266°
2026-05-05 11:51 40.69963 -74.22285 10850 ft 336 kts 266°
2026-05-05 11:51 40.69916 -74.25385 11481 ft 339 kts 266°
2026-05-05 11:52 40.69870 -74.28505 12169 ft 342 kts 266°
2026-05-05 11:52 40.69820 -74.31646 12873 ft 344 kts 267°
2026-05-05 11:52 40.69769 -74.34808 13558 ft 345 kts 267°
2026-05-05 11:52 40.69717 -74.37975 14112 ft 347 kts 267°
2026-05-05 11:53 40.69660 -74.41171 14622 ft 350 kts 267°
2026-05-05 11:53 40.69603 -74.44393 15134 ft 353 kts 267°
2026-05-05 11:53 40.69546 -74.47647 15625 ft 357 kts 267°
2026-05-05 11:53 40.69487 -74.50970 16119 ft 360 kts 267°
2026-05-05 11:54 40.69429 -74.54244 16594 ft 363 kts 267°
2026-05-05 11:54 40.69371 -74.57628 17088 ft 367 kts 267°
2026-05-05 11:54 40.69310 -74.60963 17568 ft 370 kts 267°
2026-05-05 11:54 40.69244 -74.64368 18061 ft 374 kts 267°
2026-05-05 11:55 40.69175 -74.67805 18519 ft 377 kts 267°
2026-05-05 11:55 40.69106 -74.71262 18950 ft 379 kts 267°
2026-05-05 11:55 40.69036 -74.74749 19397 ft 381 kts 267°
2026-05-05 11:55 40.68966 -74.78244 19836 ft 383 kts 267°
2026-05-05 11:56 40.68892 -74.81763 20262 ft 385 kts 267°
2026-05-05 11:56 40.68818 -74.85301 20679 ft 387 kts 267°
2026-05-05 11:56 40.68742 -74.88858 21093 ft 389 kts 267°
2026-05-05 11:56 40.68666 -74.92426 21501 ft 391 kts 267°
2026-05-05 11:57 40.68587 -74.96020 21899 ft 393 kts 267°
2026-05-05 11:57 40.68505 -74.99627 22298 ft 395 kts 267°
2026-05-05 11:57 40.68402 -75.03300 22681 ft 397 kts 264°
2026-05-05 11:57 40.67953 -75.06839 23043 ft 398 kts 255°
2026-05-05 11:58 40.67002 -75.10321 23419 ft 400 kts 245°
2026-05-05 11:58 40.65662 -75.13488 23734 ft 403 kts 240°
2026-05-05 11:58 40.64198 -75.16706 24023 ft 405 kts 240°
2026-05-05 11:58 40.62742 -75.19898 24329 ft 408 kts 240°
2026-05-05 11:59 40.61296 -75.23061 24622 ft 410 kts 240°
2026-05-05 11:59 40.59821 -75.26281 24914 ft 412 kts 240°
2026-05-05 11:59 40.58337 -75.29521 25205 ft 414 kts 240°
2026-05-05 11:59 40.56847 -75.32775 25495 ft 417 kts 240°
2026-05-05 12:00 40.55346 -75.36048 25783 ft 419 kts 240°
2026-05-05 12:00 40.53837 -75.39336 26067 ft 421 kts 240°
2026-05-05 12:00 40.52324 -75.42635 26343 ft 423 kts 240°
2026-05-05 12:00 40.50804 -75.45947 26614 ft 424 kts 240°
2026-05-05 12:01 40.49273 -75.49277 26891 ft 426 kts 240°
2026-05-05 12:01 40.47733 -75.52618 27138 ft 429 kts 240°
2026-05-05 12:01 40.46186 -75.55969 27412 ft 431 kts 240°
2026-05-05 12:01 40.44630 -75.59334 27685 ft 432 kts 240°
2026-05-05 12:02 40.43060 -75.62717 27952 ft 434 kts 240°
2026-05-05 12:02 40.41486 -75.66108 28233 ft 436 kts 240°
2026-05-05 12:02 40.39910 -75.69509 28600 ft 436 kts 240°
2026-05-05 12:02 40.38335 -75.72904 28977 ft 435 kts 240°
2026-05-05 12:03 40.36763 -75.76285 29391 ft 433 kts 240°
2026-05-05 12:03 40.35194 -75.79657 29780 ft 433 kts 240°
2026-05-05 12:03 40.33630 -75.83019 30143 ft 432 kts 240°
2026-05-05 12:03 40.32068 -75.86380 30451 ft 431 kts 240°
2026-05-05 12:04 40.30507 -75.89732 30757 ft 431 kts 240°
2026-05-05 12:04 40.29454 -75.91988 30955 ft 430 kts 240°
2026-05-05 12:04 40.27890 -75.95335 31247 ft 430 kts 239°
2026-05-05 12:04 40.26329 -75.98675 31520 ft 430 kts 239°
2026-05-05 12:05 40.24766 -76.02010 31797 ft 430 kts 239°
2026-05-05 12:05 40.23194 -76.05352 31907 ft 430 kts 239°
2026-05-05 12:05 40.20072 -76.11977 31939 ft 427 kts 239°
2026-05-05 12:06 40.16967 -76.18576 31955 ft 426 kts 239°
2026-05-05 12:06 40.13855 -76.25170 31959 ft 426 kts 239°
2026-05-05 12:07 40.10744 -76.31755 31951 ft 426 kts 240°
2026-05-05 12:07 40.07696 -76.38379 31961 ft 426 kts 240°
2026-05-05 12:08 40.04661 -76.45019 31951 ft 426 kts 240°
2026-05-05 12:08 40.01608 -76.51641 31945 ft 426 kts 240°
2026-05-05 12:09 39.98538 -76.58250 31939 ft 426 kts 240°
2026-05-05 12:09 39.95471 -76.64841 31950 ft 425 kts 240°
2026-05-05 12:10 39.92401 -76.71426 31959 ft 425 kts 240°
2026-05-05 12:10 39.89337 -76.78000 31964 ft 424 kts 240°
2026-05-05 12:11 39.86271 -76.84564 31962 ft 424 kts 240°
2026-05-05 12:11 39.83205 -76.91114 31962 ft 424 kts 240°
2026-05-05 12:12 39.80125 -76.97653 31955 ft 424 kts 240°
2026-05-05 12:12 39.77044 -77.04184 31975 ft 424 kts 240°
2026-05-05 12:13 39.73967 -77.10717 31975 ft 424 kts 240°
2026-05-05 12:13 39.70885 -77.17231 31973 ft 424 kts 240°
2026-05-05 12:14 39.67795 -77.23758 31968 ft 424 kts 240°
2026-05-05 12:14 39.64709 -77.30271 31962 ft 424 kts 240°
2026-05-05 12:15 39.61615 -77.36780 31971 ft 424 kts 240°
2026-05-05 12:15 39.58512 -77.43286 31974 ft 424 kts 240°
2026-05-05 12:16 39.55404 -77.49789 31973 ft 425 kts 240°
2026-05-05 12:16 39.52290 -77.56295 31970 ft 425 kts 240°
2026-05-05 12:17 39.49173 -77.62797 31964 ft 425 kts 240°
2026-05-05 12:17 39.46045 -77.69298 31937 ft 425 kts 240°
2026-05-05 12:18 39.42919 -77.75791 31946 ft 425 kts 240°
2026-05-05 12:18 39.39787 -77.82282 31948 ft 426 kts 240°
2026-05-05 12:19 39.36780 -77.88864 31956 ft 424 kts 244°
2026-05-05 12:19 39.34127 -77.95666 31956 ft 424 kts 246°
2026-05-05 12:20 39.31535 -78.02506 31955 ft 424 kts 246°
2026-05-05 12:20 39.28869 -78.09300 31947 ft 425 kts 245°
2026-05-05 12:21 39.26156 -78.16081 31976 ft 425 kts 245°
2026-05-05 12:21 39.23438 -78.22853 31975 ft 425 kts 245°
2026-05-05 12:22 39.20719 -78.29626 31967 ft 425 kts 245°
2026-05-05 12:22 39.17997 -78.36407 31957 ft 426 kts 245°
2026-05-05 12:23 39.15273 -78.43179 31949 ft 426 kts 245°
2026-05-05 12:23 39.12539 -78.49950 31940 ft 426 kts 245°
2026-05-05 12:24 39.09800 -78.56733 31939 ft 427 kts 245°
2026-05-05 12:24 39.07052 -78.63506 31939 ft 427 kts 245°
2026-05-05 12:25 39.04290 -78.70285 31942 ft 428 kts 245°
2026-05-05 12:25 39.01531 -78.77057 31949 ft 427 kts 245°
2026-05-05 12:26 38.98768 -78.83830 31951 ft 428 kts 246°
2026-05-05 12:26 38.96006 -78.90591 31954 ft 428 kts 246°
2026-05-05 12:27 38.93232 -78.97359 31960 ft 428 kts 246°
2026-05-05 12:27 38.90457 -79.04121 31960 ft 428 kts 246°
2026-05-05 12:28 38.87680 -79.10872 31968 ft 428 kts 246°
2026-05-05 12:28 38.84906 -79.17630 31962 ft 427 kts 249°
2026-05-05 12:29 38.83123 -79.24783 31965 ft 420 kts 261°
2026-05-05 12:29 38.81826 -79.32108 31965 ft 421 kts 260°
2026-05-05 12:30 38.80505 -79.39429 31975 ft 422 kts 260°
2026-05-05 12:30 38.79176 -79.46762 31988 ft 422 kts 260°
2026-05-05 12:31 38.77842 -79.54106 31999 ft 423 kts 260°
2026-05-05 12:31 38.76504 -79.61444 32014 ft 423 kts 260°
2026-05-05 12:32 38.75162 -79.68782 32018 ft 423 kts 260°
2026-05-05 12:32 38.73819 -79.76107 32024 ft 422 kts 260°
2026-05-05 12:33 38.72471 -79.83418 32025 ft 422 kts 260°
2026-05-05 12:33 38.71118 -79.90728 32020 ft 421 kts 260°
2026-05-05 12:34 38.69768 -79.98018 32013 ft 421 kts 260°
2026-05-05 12:34 38.68415 -80.05302 32000 ft 420 kts 260°
2026-05-05 12:35 38.67055 -80.12576 31991 ft 420 kts 260°
2026-05-05 12:35 38.65688 -80.19846 31975 ft 420 kts 260°
2026-05-05 12:36 38.64317 -80.27118 31978 ft 420 kts 260°
2026-05-05 12:36 38.62946 -80.34383 31969 ft 420 kts 260°
2026-05-05 12:37 38.61572 -80.41651 31967 ft 420 kts 260°
2026-05-05 12:37 38.60186 -80.48904 31965 ft 420 kts 260°
2026-05-05 12:38 38.58803 -80.56157 31960 ft 420 kts 260°
2026-05-05 12:38 38.57416 -80.63400 31951 ft 419 kts 260°
2026-05-05 12:39 38.56019 -80.70636 31952 ft 419 kts 259°
2026-05-05 12:39 38.54849 -80.76692 31951 ft 419 kts 259°
2026-05-05 12:40 38.53226 -80.85085 31951 ft 419 kts 259°
2026-05-05 12:40 38.51824 -80.92305 31952 ft 419 kts 259°
2026-05-05 12:41 38.50640 -80.98348 31952 ft 418 kts 259°
2026-05-05 12:41 38.49226 -81.05541 31956 ft 417 kts 259°
2026-05-05 12:42 38.47816 -81.12714 31956 ft 416 kts 259°
2026-05-05 12:42 38.46402 -81.19882 31960 ft 416 kts 259°
2026-05-05 12:43 38.44994 -81.27026 31966 ft 415 kts 259°
2026-05-05 12:43 38.43579 -81.34161 31978 ft 415 kts 259°
2026-05-05 12:44 38.42154 -81.41296 31984 ft 415 kts 259°
2026-05-05 12:44 38.40723 -81.48426 31995 ft 415 kts 258°
2026-05-05 12:45 38.39289 -81.55547 31992 ft 415 kts 258°
2026-05-05 12:45 38.37861 -81.62669 31990 ft 414 kts 258°
2026-05-05 12:46 38.36428 -81.69776 31996 ft 414 kts 258°
2026-05-05 12:46 38.34976 -81.76870 31992 ft 414 kts 256°
2026-05-05 12:47 38.33069 -81.83816 31969 ft 416 kts 253°
2026-05-05 12:47 38.31124 -81.90746 31963 ft 415 kts 253°
2026-05-05 12:48 38.29182 -81.97669 31950 ft 415 kts 253°
2026-05-05 12:48 38.27226 -82.04632 31931 ft 415 kts 253°
2026-05-05 12:49 38.25277 -82.11544 31929 ft 415 kts 253°
2026-05-05 12:49 38.23321 -82.18452 31933 ft 415 kts 253°
2026-05-05 12:50 38.21368 -82.25352 31944 ft 415 kts 253°
2026-05-05 12:50 38.19404 -82.32253 31941 ft 415 kts 253°
2026-05-05 12:51 38.17441 -82.39151 31950 ft 415 kts 253°
2026-05-05 12:51 38.15472 -82.46038 31943 ft 415 kts 253°
2026-05-05 12:52 38.13499 -82.52928 31943 ft 415 kts 253°
2026-05-05 12:52 38.11522 -82.59810 31949 ft 415 kts 253°
2026-05-05 12:53 38.09550 -82.66688 31944 ft 414 kts 254°
2026-05-05 12:53 38.07570 -82.73557 31939 ft 414 kts 254°
2026-05-05 12:54 38.04583 -82.83852 31948 ft 414 kts 254°
2026-05-05 12:55 38.02593 -82.90697 31948 ft 414 kts 254°
2026-05-05 12:55 38.00587 -82.97583 31947 ft 413 kts 254°
2026-05-05 12:56 37.98604 -83.04360 31946 ft 413 kts 254°
2026-05-05 12:56 37.96593 -83.11228 31945 ft 412 kts 254°
2026-05-05 12:57 37.94603 -83.18036 31944 ft 412 kts 254°
2026-05-05 12:57 37.92609 -83.24837 31952 ft 412 kts 254°
2026-05-05 12:58 37.90598 -83.31634 31958 ft 412 kts 254°
2026-05-05 12:58 37.88582 -83.38427 31967 ft 412 kts 254°
2026-05-05 12:59 37.86572 -83.45201 31969 ft 411 kts 254°
2026-05-05 12:59 37.84568 -83.51969 31965 ft 410 kts 254°
2026-05-05 13:00 37.81554 -83.62088 31958 ft 409 kts 255°
2026-05-05 13:01 37.77534 -83.75513 31963 ft 407 kts 255°
2026-05-05 13:01 37.75522 -83.82192 31962 ft 406 kts 255°
2026-05-05 13:02 37.73523 -83.88858 31957 ft 405 kts 255°
2026-05-05 13:02 37.71520 -83.95506 31965 ft 404 kts 255°
2026-05-05 13:03 37.69511 -84.02132 31977 ft 404 kts 255°
2026-05-05 13:03 37.67501 -84.08735 32003 ft 403 kts 255°
2026-05-05 13:04 37.65493 -84.15326 32010 ft 402 kts 255°
2026-05-05 13:04 37.63492 -84.21898 32036 ft 401 kts 255°
2026-05-05 13:05 37.61488 -84.28448 32033 ft 399 kts 255°
2026-05-05 13:05 37.59483 -84.34962 32031 ft 398 kts 255°
2026-05-05 13:06 37.57481 -84.41459 32032 ft 397 kts 255°
2026-05-05 13:06 37.55480 -84.47934 32017 ft 395 kts 255°
2026-05-05 13:07 37.53490 -84.54379 31998 ft 394 kts 255°
2026-05-05 13:07 37.51500 -84.60804 32006 ft 393 kts 255°
2026-05-05 13:08 37.49506 -84.67210 32010 ft 393 kts 255°
2026-05-05 13:08 37.47512 -84.73615 32010 ft 392 kts 256°
2026-05-05 13:09 37.45534 -84.80013 32006 ft 392 kts 256°
2026-05-05 13:09 37.43560 -84.86402 31998 ft 392 kts 256°
2026-05-05 13:10 37.41576 -84.92777 31991 ft 391 kts 256°
2026-05-05 13:10 37.39584 -84.99156 31984 ft 391 kts 256°
2026-05-05 13:11 37.37596 -85.05523 32003 ft 391 kts 256°
2026-05-05 13:11 37.35596 -85.11884 32018 ft 391 kts 255°
2026-05-05 13:12 37.33590 -85.18235 32027 ft 391 kts 256°
2026-05-05 13:12 37.31587 -85.24577 32027 ft 390 kts 256°
2026-05-05 13:13 37.29584 -85.30905 32030 ft 390 kts 255°
2026-05-05 13:13 37.27573 -85.37227 32027 ft 389 kts 255°
2026-05-05 13:14 37.25564 -85.43529 32012 ft 389 kts 256°
2026-05-05 13:14 37.23893 -85.48767 32003 ft 388 kts 256°
2026-05-05 13:15 37.21872 -85.55096 31990 ft 388 kts 256°
2026-05-05 13:15 37.19866 -85.61371 31976 ft 388 kts 256°
2026-05-05 13:16 37.17851 -85.67644 31968 ft 387 kts 256°
2026-05-05 13:16 37.15834 -85.73903 31973 ft 387 kts 255°
2026-05-05 13:17 37.13820 -85.80152 31977 ft 386 kts 256°
2026-05-05 13:17 37.11805 -85.86401 31980 ft 386 kts 255°
2026-05-05 13:18 37.09806 -85.92586 31985 ft 386 kts 255°
2026-05-05 13:18 37.07790 -85.98813 31990 ft 385 kts 255°
2026-05-05 13:19 37.05771 -86.05028 31987 ft 385 kts 255°
2026-05-05 13:19 37.03749 -86.11236 31983 ft 385 kts 255°
2026-05-05 13:20 37.01728 -86.17441 31978 ft 385 kts 255°
2026-05-05 13:20 36.99700 -86.23635 31970 ft 385 kts 255°
2026-05-05 13:21 36.97669 -86.29818 31970 ft 384 kts 255°
2026-05-05 13:21 36.95639 -86.36004 31971 ft 384 kts 255°
2026-05-05 13:22 36.93597 -86.42190 31969 ft 385 kts 255°
2026-05-05 13:22 36.91510 -86.48358 31967 ft 386 kts 253°
2026-05-05 13:23 36.89305 -86.54473 31961 ft 387 kts 252°
2026-05-05 13:23 36.87067 -86.60590 31956 ft 387 kts 252°
2026-05-05 13:24 36.84846 -86.66709 31950 ft 387 kts 253°
2026-05-05 13:24 36.82643 -86.72827 31942 ft 387 kts 253°
2026-05-05 13:25 36.80422 -86.78955 31935 ft 387 kts 253°
2026-05-05 13:25 36.78210 -86.85075 31930 ft 387 kts 253°
2026-05-05 13:26 36.75992 -86.91203 31926 ft 388 kts 253°
2026-05-05 13:26 36.73767 -86.97326 31923 ft 388 kts 252°
2026-05-05 13:27 36.71524 -87.03455 31924 ft 389 kts 252°
2026-05-05 13:27 36.69280 -87.09577 31926 ft 388 kts 252°
2026-05-05 13:28 36.67042 -87.15705 31925 ft 388 kts 252°
2026-05-05 13:28 36.64794 -87.21826 31925 ft 389 kts 252°
2026-05-05 13:29 36.62542 -87.27948 31927 ft 389 kts 252°
2026-05-05 13:29 36.60289 -87.34069 31925 ft 389 kts 252°
2026-05-05 13:30 36.58037 -87.40192 31925 ft 389 kts 252°
2026-05-05 13:30 36.55780 -87.46314 31943 ft 389 kts 252°
2026-05-05 13:31 36.53515 -87.52430 31941 ft 390 kts 252°
2026-05-05 13:31 36.51243 -87.58549 31942 ft 390 kts 252°
2026-05-05 13:32 36.48977 -87.64668 31932 ft 390 kts 252°
2026-05-05 13:32 36.46695 -87.70784 31931 ft 390 kts 252°
2026-05-05 13:33 36.44411 -87.76891 31926 ft 390 kts 252°
2026-05-05 13:33 36.42127 -87.82992 31922 ft 390 kts 252°
2026-05-05 13:34 36.39842 -87.89092 31917 ft 389 kts 252°
2026-05-05 13:34 36.37561 -87.95180 31917 ft 389 kts 252°
2026-05-05 13:35 36.35273 -88.01264 31920 ft 389 kts 252°
2026-05-05 13:35 36.32984 -88.07344 31922 ft 389 kts 252°
2026-05-05 13:36 36.30698 -88.13411 31924 ft 388 kts 252°
2026-05-05 13:36 36.28405 -88.19469 31925 ft 388 kts 252°
2026-05-05 13:37 36.26114 -88.25523 31927 ft 388 kts 252°
2026-05-05 13:37 36.23823 -88.31569 31939 ft 388 kts 252°
2026-05-05 13:38 36.21527 -88.37606 31928 ft 387 kts 252°
2026-05-05 13:38 36.19226 -88.43642 31930 ft 387 kts 252°
2026-05-05 13:39 36.16924 -88.49658 31931 ft 387 kts 252°
2026-05-05 13:39 36.14618 -88.55678 31933 ft 387 kts 252°
2026-05-05 13:40 36.12321 -88.61687 31915 ft 387 kts 252°
2026-05-05 13:40 36.10017 -88.67702 31922 ft 387 kts 252°
2026-05-05 13:41 36.07707 -88.73703 31907 ft 387 kts 252°
2026-05-05 13:41 36.05389 -88.79706 31900 ft 387 kts 251°
2026-05-05 13:42 36.03065 -88.85713 31889 ft 388 kts 251°
2026-05-05 13:42 36.00732 -88.91722 31874 ft 388 kts 251°
2026-05-05 13:43 35.98396 -88.97748 31879 ft 389 kts 251°
2026-05-05 13:43 35.96057 -89.03784 31877 ft 390 kts 251°
2026-05-05 13:44 35.93703 -89.09829 31881 ft 392 kts 251°
2026-05-05 13:44 35.91337 -89.15897 31878 ft 393 kts 251°
2026-05-05 13:45 35.88966 -89.21971 31877 ft 394 kts 251°
2026-05-05 13:45 35.86580 -89.28049 31876 ft 394 kts 251°
2026-05-05 13:46 35.84187 -89.34142 31878 ft 395 kts 251°
2026-05-05 13:46 35.81793 -89.40231 31871 ft 395 kts 251°
2026-05-05 13:47 35.79393 -89.46327 31872 ft 396 kts 251°
2026-05-05 13:47 35.76973 -89.52477 31870 ft 396 kts 251°
2026-05-05 13:48 35.74574 -89.58550 31864 ft 397 kts 251°
2026-05-05 13:48 35.72147 -89.64669 31861 ft 398 kts 251°
2026-05-05 13:49 35.69715 -89.70800 31859 ft 399 kts 251°
2026-05-05 13:49 35.67283 -89.76936 31854 ft 400 kts 251°
2026-05-05 13:50 35.64838 -89.83082 31865 ft 400 kts 251°
2026-05-05 13:50 35.62385 -89.89221 31870 ft 400 kts 251°
2026-05-05 13:51 35.59926 -89.95359 31879 ft 400 kts 251°
2026-05-05 13:51 35.57470 -90.01494 31882 ft 400 kts 251°
2026-05-05 13:52 35.55005 -90.07620 31884 ft 400 kts 252°
2026-05-05 13:52 35.52951 -90.12749 31884 ft 400 kts 252°
2026-05-05 13:53 35.50493 -90.18871 31878 ft 399 kts 252°
2026-05-05 13:53 35.48031 -90.24974 31877 ft 399 kts 252°
2026-05-05 13:54 35.45568 -90.31068 31875 ft 398 kts 252°
2026-05-05 13:54 35.43102 -90.37155 31875 ft 398 kts 252°
2026-05-05 13:55 35.40639 -90.43223 31871 ft 397 kts 252°
2026-05-05 13:55 35.38178 -90.49285 31870 ft 397 kts 252°
2026-05-05 13:56 35.35715 -90.55337 31867 ft 396 kts 252°
2026-05-05 13:56 35.33253 -90.61365 31872 ft 396 kts 252°
2026-05-05 13:57 35.30789 -90.67392 31875 ft 395 kts 252°
2026-05-05 13:57 35.28326 -90.73396 31872 ft 394 kts 252°
2026-05-05 13:58 35.25870 -90.79388 31874 ft 394 kts 252°
2026-05-05 13:58 35.23408 -90.85365 31872 ft 393 kts 252°
2026-05-05 13:59 35.19731 -90.94317 31865 ft 392 kts 252°
2026-05-05 14:00 35.16045 -91.03245 31860 ft 392 kts 252°
2026-05-05 14:00 35.13593 -91.09192 31854 ft 392 kts 251°
2026-05-05 14:01 35.11129 -91.15136 31856 ft 392 kts 251°
2026-05-05 14:01 35.08660 -91.21079 31846 ft 392 kts 251°
2026-05-05 14:02 35.06184 -91.27025 31841 ft 392 kts 251°
2026-05-05 14:02 35.03705 -91.32960 31842 ft 392 kts 251°
2026-05-05 14:03 35.01227 -91.38891 31842 ft 392 kts 251°
2026-05-05 14:03 34.98757 -91.44812 31848 ft 392 kts 251°
2026-05-05 14:04 34.96280 -91.50724 31853 ft 391 kts 251°
2026-05-05 14:04 34.93807 -91.56616 31853 ft 390 kts 251°
2026-05-05 14:05 34.91341 -91.62495 31853 ft 389 kts 251°
2026-05-05 14:05 34.88870 -91.68360 31860 ft 389 kts 251°
2026-05-05 14:06 34.86393 -91.74212 31860 ft 389 kts 251°
2026-05-05 14:06 34.83917 -91.80052 31851 ft 388 kts 251°
2026-05-05 14:07 34.81450 -91.85891 31853 ft 388 kts 251°
2026-05-05 14:07 34.78985 -91.91721 31858 ft 387 kts 251°
2026-05-05 14:08 34.76508 -91.97549 31859 ft 387 kts 251°
2026-05-05 14:08 34.74034 -92.03352 31873 ft 386 kts 251°
2026-05-05 14:09 34.71565 -92.09152 31887 ft 386 kts 251°
2026-05-05 14:09 34.69098 -92.14929 31881 ft 385 kts 250°
2026-05-05 14:10 34.66997 -92.20824 31879 ft 376 kts 258°
2026-05-05 14:10 34.65371 -92.26853 31881 ft 375 kts 258°
2026-05-05 14:11 34.63738 -92.32874 31881 ft 375 kts 258°
2026-05-05 14:11 34.62097 -92.38879 31872 ft 374 kts 258°
2026-05-05 14:12 34.60455 -92.44873 31872 ft 374 kts 258°
2026-05-05 14:12 34.58809 -92.50865 31870 ft 374 kts 258°
2026-05-05 14:13 34.57158 -92.56847 31871 ft 374 kts 258°
2026-05-05 14:13 34.55506 -92.62829 31867 ft 373 kts 258°
2026-05-05 14:14 34.53861 -92.68798 31859 ft 373 kts 258°
2026-05-05 14:14 34.52216 -92.74768 31851 ft 373 kts 258°
2026-05-05 14:15 34.50562 -92.80733 31850 ft 373 kts 257°
2026-05-05 14:15 34.48904 -92.86685 31854 ft 373 kts 257°
2026-05-05 14:16 34.47246 -92.92637 31861 ft 373 kts 257°
2026-05-05 14:16 34.45586 -92.98589 31866 ft 373 kts 257°
2026-05-05 14:17 34.43921 -93.04534 31866 ft 373 kts 257°
2026-05-05 14:17 34.42257 -93.10478 31869 ft 372 kts 257°
2026-05-05 14:18 34.40590 -93.16416 31867 ft 372 kts 257°
2026-05-05 14:18 34.38920 -93.22346 31859 ft 372 kts 257°
2026-05-05 14:19 34.37249 -93.28270 31848 ft 372 kts 257°
2026-05-05 14:19 34.35578 -93.34185 31836 ft 371 kts 257°
2026-05-05 14:20 34.33900 -93.40092 31821 ft 371 kts 257°
2026-05-05 14:20 34.32222 -93.45988 31808 ft 371 kts 257°
2026-05-05 14:21 34.30541 -93.51889 31803 ft 371 kts 257°
2026-05-05 14:21 34.28862 -93.57782 31801 ft 371 kts 257°
2026-05-05 14:22 34.27180 -93.63685 31802 ft 371 kts 257°
2026-05-05 14:22 34.25491 -93.69577 31802 ft 371 kts 257°
2026-05-05 14:23 34.23796 -93.75474 31806 ft 371 kts 257°
2026-05-05 14:23 34.22115 -93.81332 31807 ft 371 kts 257°
2026-05-05 14:24 34.20422 -93.87217 31809 ft 371 kts 257°
2026-05-05 14:24 34.18706 -93.93091 31807 ft 371 kts 256°
2026-05-05 14:25 34.16913 -93.98938 31803 ft 371 kts 256°
2026-05-05 14:25 34.15110 -94.04771 31798 ft 371 kts 256°
2026-05-05 14:26 34.13304 -94.10636 31796 ft 371 kts 256°
2026-05-05 14:26 34.11512 -94.16467 31797 ft 370 kts 256°
2026-05-05 14:27 34.09739 -94.22251 31795 ft 370 kts 256°
2026-05-05 14:27 34.07944 -94.28070 31797 ft 370 kts 256°
2026-05-05 14:28 34.06143 -94.33875 31799 ft 370 kts 256°
2026-05-05 14:28 34.04336 -94.39681 31801 ft 369 kts 256°
2026-05-05 14:29 34.02542 -94.45472 31799 ft 369 kts 256°
2026-05-05 14:29 34.00748 -94.51260 31804 ft 369 kts 256°
2026-05-05 14:30 33.98949 -94.57042 31803 ft 368 kts 255°
2026-05-05 14:30 33.97451 -94.61846 31796 ft 368 kts 256°
2026-05-05 14:31 33.95643 -94.67618 31791 ft 368 kts 255°
2026-05-05 14:31 33.93826 -94.73417 31790 ft 368 kts 255°
2026-05-05 14:32 33.92013 -94.79176 31786 ft 368 kts 255°
2026-05-05 14:32 33.90212 -94.84890 31786 ft 367 kts 255°
2026-05-05 14:33 33.88400 -94.90641 31790 ft 367 kts 255°
2026-05-05 14:33 33.86591 -94.96384 31791 ft 367 kts 255°
2026-05-05 14:34 33.84780 -95.02121 31786 ft 367 kts 255°
2026-05-05 14:34 33.82958 -95.07853 31790 ft 366 kts 255°
2026-05-05 14:35 33.81139 -95.13573 31789 ft 366 kts 255°
2026-05-05 14:35 33.79320 -95.19299 31800 ft 366 kts 255°
2026-05-05 14:36 33.77499 -95.25018 31803 ft 366 kts 255°
2026-05-05 14:36 33.75670 -95.30720 31802 ft 366 kts 255°
2026-05-05 14:37 33.73834 -95.36440 31185 ft 369 kts 255°
2026-05-05 14:37 33.72914 -95.39300 30641 ft 366 kts 255°
2026-05-05 14:37 33.71994 -95.42148 30106 ft 365 kts 255°
2026-05-05 14:38 33.71078 -95.44976 29531 ft 363 kts 255°
2026-05-05 14:38 33.70167 -95.47789 28987 ft 360 kts 254°
2026-05-05 14:38 33.69267 -95.50575 28460 ft 356 kts 254°
2026-05-05 14:38 33.68373 -95.53333 27942 ft 353 kts 254°
2026-05-05 14:39 33.67484 -95.56067 27437 ft 350 kts 253°
2026-05-05 14:39 33.66602 -95.58775 26929 ft 347 kts 253°
2026-05-05 14:39 33.65725 -95.61472 26432 ft 345 kts 253°
2026-05-05 14:39 33.64856 -95.64144 25945 ft 343 kts 253°
2026-05-05 14:40 33.63993 -95.66800 25501 ft 341 kts 253°
2026-05-05 14:40 33.63130 -95.69454 25002 ft 341 kts 252°
2026-05-05 14:40 33.62269 -95.72102 24536 ft 341 kts 252°
2026-05-05 14:40 33.61409 -95.74749 24096 ft 340 kts 252°
2026-05-05 14:41 33.60550 -95.77392 23635 ft 340 kts 252°
2026-05-05 14:41 33.59688 -95.80030 23167 ft 339 kts 252°
2026-05-05 14:41 33.58827 -95.82660 22701 ft 337 kts 252°
2026-05-05 14:41 33.57972 -95.85262 22261 ft 334 kts 252°
2026-05-05 14:42 33.57124 -95.87844 21810 ft 331 kts 252°
2026-05-05 14:42 33.56282 -95.90407 21374 ft 329 kts 252°
2026-05-05 14:42 33.55446 -95.92948 20932 ft 326 kts 252°
2026-05-05 14:42 33.54618 -95.95466 20477 ft 324 kts 252°
2026-05-05 14:43 33.53794 -95.97972 20026 ft 322 kts 252°
2026-05-05 14:43 33.52978 -96.00464 19571 ft 320 kts 252°
2026-05-05 14:43 33.52166 -96.02941 19108 ft 318 kts 252°
2026-05-05 14:43 33.51356 -96.05406 18653 ft 317 kts 252°
2026-05-05 14:44 33.50548 -96.07859 18189 ft 316 kts 252°
2026-05-05 14:44 33.49747 -96.10287 17852 ft 310 kts 252°
2026-05-05 14:44 33.48958 -96.12665 17458 ft 305 kts 252°
2026-05-05 14:44 33.48179 -96.15016 17021 ft 302 kts 252°
2026-05-05 14:45 33.47413 -96.17341 16609 ft 299 kts 252°
2026-05-05 14:45 33.46658 -96.19623 16344 ft 291 kts 252°
2026-05-05 14:45 33.45907 -96.21894 15766 ft 294 kts 252°
2026-05-05 14:45 33.45161 -96.24155 15437 ft 290 kts 252°
2026-05-05 14:46 33.44417 -96.26403 15045 ft 287 kts 251°
2026-05-05 14:46 33.43655 -96.28599 14992 ft 285 kts 252°
2026-05-05 14:46 33.43293 -96.30900 15000 ft 282 kts 273°
2026-05-05 14:46 33.43799 -96.33155 14996 ft 286 kts 296°
2026-05-05 14:47 33.45120 -96.34968 15000 ft 298 kts 319°
2026-05-05 14:47 33.47072 -96.35950 14996 ft 317 kts 343°
2026-05-05 14:47 33.49327 -96.35734 14994 ft 340 kts 12°
2026-05-05 14:47 33.51398 -96.34227 14998 ft 359 kts 34°
2026-05-05 14:48 33.53227 -96.32154 14995 ft 364 kts 40°
2026-05-05 14:48 33.54959 -96.29926 14992 ft 366 kts 42°
2026-05-05 14:48 33.56639 -96.27630 14993 ft 367 kts 43°
2026-05-05 14:48 33.58308 -96.25321 14993 ft 366 kts 43°
2026-05-05 14:49 33.59991 -96.23031 14992 ft 366 kts 43°
2026-05-05 14:49 33.61693 -96.20760 14989 ft 366 kts 42°
2026-05-05 14:49 33.63366 -96.18455 14987 ft 369 kts 51°
2026-05-05 14:49 33.64376 -96.15603 14989 ft 377 kts 79°
2026-05-05 14:50 33.64289 -96.12482 14995 ft 376 kts 108°
2026-05-05 14:50 33.63129 -96.09741 14995 ft 366 kts 137°
2026-05-05 14:50 33.61174 -96.07948 14997 ft 347 kts 165°
2026-05-05 14:50 33.58897 -96.07446 14996 ft 324 kts 194°
2026-05-05 14:51 33.56865 -96.08258 14996 ft 301 kts 223°
2026-05-05 14:51 33.55429 -96.09999 15002 ft 292 kts 238°
2026-05-05 14:51 33.54263 -96.11988 14999 ft 291 kts 241°
2026-05-05 14:51 33.53127 -96.14000 14999 ft 290 kts 240°
2026-05-05 14:52 33.51957 -96.15914 14995 ft 283 kts 238°
2026-05-05 14:52 33.50727 -96.17750 14999 ft 282 kts 236°
2026-05-05 14:52 33.49445 -96.19534 14998 ft 283 kts 234°
2026-05-05 14:52 33.48132 -96.21282 14999 ft 283 kts 233°
2026-05-05 14:53 33.46795 -96.23019 14999 ft 283 kts 233°
2026-05-05 14:53 33.45452 -96.24747 14999 ft 283 kts 233°
2026-05-05 14:53 33.44166 -96.26514 14996 ft 278 kts 243°
2026-05-05 14:53 33.43458 -96.28609 14999 ft 270 kts 263°
2026-05-05 14:54 33.43518 -96.30834 15001 ft 270 kts 283°
2026-05-05 14:54 33.44332 -96.32870 14997 ft 276 kts 304°
2026-05-05 14:54 33.45816 -96.34382 14999 ft 289 kts 325°
2026-05-05 14:54 33.47802 -96.35032 14997 ft 310 kts 351°
2026-05-05 14:55 33.49971 -96.34495 14994 ft 333 kts 19°
2026-05-05 14:55 33.51856 -96.32763 15001 ft 349 kts 38°
2026-05-05 14:55 33.53561 -96.30667 14993 ft 352 kts 41°
2026-05-05 14:55 33.55215 -96.28491 14990 ft 353 kts 42°
2026-05-05 14:56 33.56851 -96.26288 14992 ft 354 kts 42°
2026-05-05 14:56 33.58488 -96.24085 14993 ft 353 kts 42°
2026-05-05 14:56 33.60132 -96.21900 14993 ft 353 kts 41°
2026-05-05 14:56 33.61790 -96.19725 14991 ft 353 kts 41°
2026-05-05 14:57 33.63316 -96.17453 14981 ft 360 kts 58°
2026-05-05 14:57 33.64029 -96.14573 14990 ft 366 kts 88°
2026-05-05 14:57 33.63631 -96.11589 14995 ft 362 kts 117°
2026-05-05 14:57 33.62220 -96.09179 14995 ft 348 kts 147°
2026-05-05 14:58 33.60165 -96.07868 14995 ft 326 kts 176°
2026-05-05 14:58 33.58005 -96.07894 14995 ft 301 kts 206°
2026-05-05 14:58 33.56304 -96.09138 14999 ft 281 kts 233°
2026-05-05 14:58 33.55080 -96.10948 14998 ft 279 kts 239°
2026-05-05 14:59 33.53937 -96.12868 14995 ft 279 kts 240°
2026-05-05 14:59 33.52796 -96.14723 14998 ft 280 kts 238°
2026-05-05 14:59 33.51567 -96.16582 14998 ft 281 kts 236°
2026-05-05 14:59 33.50307 -96.18369 15000 ft 282 kts 235°
2026-05-05 15:00 33.49005 -96.20130 14992 ft 282 kts 234°
2026-05-05 15:00 33.48128 -96.21284 14995 ft 282 kts 234°
2026-05-05 15:00 33.46362 -96.23569 15001 ft 283 kts 233°
2026-05-05 15:00 33.45021 -96.25292 15004 ft 283 kts 233°
2026-05-05 15:01 33.43860 -96.27144 15002 ft 274 kts 250°
2026-05-05 15:01 33.43396 -96.29310 15001 ft 269 kts 270°
2026-05-05 15:01 33.43694 -96.31501 14998 ft 270 kts 289°
2026-05-05 15:01 33.44724 -96.33406 15000 ft 279 kts 310°
2026-05-05 15:02 33.46384 -96.34683 14994 ft 295 kts 333°
2026-05-05 15:02 33.48476 -96.34994 14993 ft 317 kts 359°
2026-05-05 15:02 33.50599 -96.34054 14989 ft 341 kts 28°
2026-05-05 15:02 33.52398 -96.32120 14995 ft 351 kts 39°
2026-05-05 15:03 33.54085 -96.29994 14993 ft 353 kts 41°
2026-05-05 15:03 33.55731 -96.27798 14992 ft 354 kts 42°
2026-05-05 15:03 33.57367 -96.25582 14991 ft 354 kts 42°
2026-05-05 15:03 33.59004 -96.23378 14993 ft 354 kts 42°
2026-05-05 15:04 33.60652 -96.21186 14987 ft 354 kts 41°
2026-05-05 15:04 33.62315 -96.19002 14990 ft 354 kts 42°
2026-05-05 15:04 33.63657 -96.16507 14986 ft 363 kts 68°
2026-05-05 15:04 33.63995 -96.13504 14993 ft 367 kts 98°
2026-05-05 15:05 33.61538 -96.08552 14997 ft 342 kts 157°
2026-05-05 15:05 33.59382 -96.07684 14996 ft 318 kts 187°
2026-05-05 15:05 33.57324 -96.08153 14995 ft 293 kts 217°
2026-05-05 15:06 33.55838 -96.09684 15003 ft 279 kts 237°
2026-05-05 15:06 33.54678 -96.11544 14998 ft 278 kts 240°
2026-05-05 15:06 33.53564 -96.13444 14997 ft 279 kts 240°
2026-05-05 15:06 33.52408 -96.15310 14998 ft 280 kts 238°
2026-05-05 15:07 33.51188 -96.17130 14996 ft 280 kts 236°
2026-05-05 15:07 33.49916 -96.18908 14996 ft 281 kts 234°
2026-05-05 15:07 33.48610 -96.20653 14998 ft 281 kts 234°
2026-05-05 15:07 33.47287 -96.22378 14999 ft 282 kts 233°
2026-05-05 15:08 33.45952 -96.24099 14997 ft 282 kts 233°
2026-05-05 15:08 33.44613 -96.25817 14995 ft 282 kts 233°
2026-05-05 15:08 33.43296 -96.27557 14996 ft 281 kts 235°
2026-05-05 15:08 33.42002 -96.29330 14624 ft 284 kts 235°
2026-05-05 15:09 33.40710 -96.31130 14136 ft 286 kts 235°
2026-05-05 15:09 33.39407 -96.32952 13650 ft 289 kts 235°
2026-05-05 15:09 33.38091 -96.34788 13125 ft 292 kts 234°
2026-05-05 15:09 33.36761 -96.36631 12668 ft 292 kts 234°
2026-05-05 15:10 33.35443 -96.38443 12318 ft 286 kts 234°
2026-05-05 15:10 33.34153 -96.40211 12041 ft 278 kts 234°
2026-05-05 15:10 33.32959 -96.41973 11918 ft 269 kts 242°
2026-05-05 15:10 33.32161 -96.43977 11757 ft 266 kts 254°
2026-05-05 15:11 33.31771 -96.45393 11554 ft 265 kts 254°
2026-05-05 15:11 33.31193 -96.47480 11270 ft 264 kts 253°
2026-05-05 15:11 33.30612 -96.49556 11015 ft 261 kts 253°
2026-05-05 15:11 33.30039 -96.51590 10754 ft 256 kts 253°
2026-05-05 15:12 33.29474 -96.53603 10418 ft 254 kts 253°
2026-05-05 15:12 33.28916 -96.55596 10129 ft 252 kts 255°
2026-05-05 15:12 33.28635 -96.57646 9839 ft 250 kts 267°
2026-05-05 15:12 33.28547 -96.59724 9531 ft 250 kts 266°
2026-05-05 15:13 33.28456 -96.61793 9220 ft 249 kts 266°
2026-05-05 15:13 33.28363 -96.63859 8921 ft 249 kts 266°
2026-05-05 15:13 33.28272 -96.65920 8623 ft 248 kts 266°
2026-05-05 15:13 33.28178 -96.67977 8330 ft 247 kts 266°
2026-05-05 15:14 33.28084 -96.70024 8070 ft 245 kts 266°
2026-05-05 15:14 33.27990 -96.72066 7950 ft 246 kts 266°
2026-05-05 15:14 33.27893 -96.74123 7519 ft 249 kts 266°
2026-05-05 15:14 33.27797 -96.76153 7362 ft 241 kts 266°
2026-05-05 15:15 33.27702 -96.78140 7024 ft 239 kts 266°
2026-05-05 15:15 33.27607 -96.80124 6650 ft 240 kts 266°
2026-05-05 15:15 33.27512 -96.82102 6371 ft 238 kts 266°
2026-05-05 15:15 33.27409 -96.84076 6041 ft 237 kts 263°
2026-05-05 15:16 33.26899 -96.85902 5999 ft 233 kts 245°
2026-05-05 15:16 33.26165 -96.87634 5996 ft 234 kts 245°
2026-05-05 15:16 33.25428 -96.89371 5994 ft 235 kts 245°
2026-05-05 15:16 33.24688 -96.91111 5997 ft 235 kts 245°
2026-05-05 15:17 33.23946 -96.92845 5998 ft 235 kts 245°
2026-05-05 15:17 33.23202 -96.94582 6000 ft 235 kts 245°
2026-05-05 15:17 33.22459 -96.96322 6002 ft 236 kts 245°
2026-05-05 15:17 33.21714 -96.98066 5925 ft 235 kts 245°
2026-05-05 15:18 33.20973 -96.99781 5807 ft 240 kts 243°
2026-05-05 15:18 33.19845 -97.01362 5609 ft 251 kts 221°
2026-05-05 15:18 33.18309 -97.02284 5414 ft 253 kts 200°
2026-05-05 15:18 33.16558 -97.02475 5216 ft 253 kts 186°
2026-05-05 15:19 33.14813 -97.02475 4966 ft 247 kts 186°
2026-05-05 15:19 33.13108 -97.02479 4640 ft 243 kts 186°
2026-05-05 15:19 33.11441 -97.02487 4319 ft 236 kts 188°
2026-05-05 15:19 33.09831 -97.02495 4015 ft 226 kts 188°
2026-05-05 15:20 33.08288 -97.02503 3744 ft 219 kts 189°
2026-05-05 15:20 33.06789 -97.02512 3462 ft 211 kts 189°
2026-05-05 15:20 33.05383 -97.02516 3218 ft 193 kts 190°
2026-05-05 15:20 33.04073 -97.02522 2972 ft 181 kts 189°
2026-05-05 15:21 33.02832 -97.02532 2737 ft 177 kts 189°
2026-05-05 15:21 33.01622 -97.02541 2518 ft 171 kts 188°
2026-05-05 15:21 33.00466 -97.02546 2308 ft 159 kts 187°
2026-05-05 15:21 32.99398 -97.02552 2102 ft 151 kts 186°
2026-05-05 15:22 32.98395 -97.02557 1921 ft 141 kts 187°
2026-05-05 15:22 32.97419 -97.02564 1724 ft 137 kts 185°
2026-05-05 15:22 32.96473 -97.02571 1546 ft 134 kts 185°
2026-05-05 15:22 32.95531 -97.02600 1382 ft 136 kts 185°
2026-05-05 15:23 32.94581 -97.02611 1201 ft 138 kts 181°
2026-05-05 15:23 32.93636 -97.02570 1026 ft 136 kts 180°
2026-05-05 15:23 32.92691 -97.02585 858 ft 135 kts 186°
2026-05-05 15:23 32.91747 -97.02595 679 ft 136 kts 185°
2026-05-05 15:24 32.90826 -97.02599 580 ft 122 kts 184°
2026-05-05 15:24 32.90117 -97.02607 576 ft 78 kts 180°
2026-05-05 15:24 32.89759 -97.02610 571 ft 31 kts 185°
2026-05-05 15:24 32.89580 -97.02679 572 ft 21 kts 207°
2026-05-05 15:25 32.89464 -97.02757 573 ft 18 kts 211°
2026-05-05 15:25 32.89356 -97.02805 579 ft 16 kts 182°
2026-05-05 15:25 32.89248 -97.02806 580 ft 15 kts 180°
2026-05-05 15:25 32.89143 -97.02806 579 ft 15 kts 180°
2026-05-05 15:26 32.89049 -97.02811 579 ft 10 kts 201°
2026-05-05 15:26 32.89035 -97.02881 578 ft 9 kts 269°
2026-05-05 15:26 32.89036 -97.02963 578 ft 11 kts 271°
2026-05-05 15:26 32.89037 -97.03058 577 ft 13 kts 270°
2026-05-05 15:27 32.89037 -97.03156 582 ft 9 kts 270°
2026-05-05 15:27 32.89038 -97.03189 586 ft 0 kts 271°
2026-05-05 15:27 32.89038 -97.03197 587 ft 4 kts 270°
2026-05-05 15:28 32.89038 -97.03213 590 ft 1 kts 270°
2026-05-05 15:28 32.89038 -97.03250 594 ft 10 kts 269°
2026-05-05 15:28 32.89057 -97.03318 596 ft 8 kts 351°
2026-05-05 15:28 32.89121 -97.03319 597 ft 10 kts
2026-05-05 15:29 32.89194 -97.03319 597 ft 11 kts 360°
2026-05-05 15:29 32.89276 -97.03320 597 ft 12 kts
2026-05-05 15:29 32.89366 -97.03319 597 ft 14 kts
2026-05-05 15:29 32.89464 -97.03319 597 ft 15 kts 360°
2026-05-05 15:30 32.89569 -97.03319 597 ft 16 kts
2026-05-05 15:30 32.89672 -97.03318 597 ft 15 kts
2026-05-05 15:30 32.89750 -97.03327 597 ft 9 kts 324°
2026-05-05 15:30 32.89753 -97.03402 598 ft 9 kts 260°
2026-05-05 15:31 32.89744 -97.03461 598 ft 8 kts 268°
2026-05-05 15:31 32.89745 -97.03494 598 ft 2 kts 272°
2026-05-05 15:31 32.89745 -97.03504 598 ft 0 kts 272°